[[{"header":{"parameterUnit":"m.s-1","parameterCategory":1,"la1":30.2991,"la2":30.254,"lo1":-89.0895,"lo2":-89.0444,"dy":0.0017,"dx":0.0017,"nx":28,"ny":28,"refTime":"2024-08-10T09:00:00:Z","depth":0,"parameterNumber":2,"parameterNumberName":"U-component_of_WINDS"},"data":[0,0,0,0,0,0,0,0,0,0,0,0,0,0,0,0,0,0,0,0,0,0,0,0,0,0,0,0,0,0,0,0,0,0,0,0,0,0,0,0,0,0,0,0,0,0,0,0,0,0,0,0,0,0,0,0,0,0,2.7345,2.7346,0,2.7378,2.7379,2.7379,2.7304,2.7302,2.7299,2.7297,2.7333,2.7336,2.7339,0,0,0,0,0,0,0,0,0,0,0,0,0,2.7217,2.722,2.7345,2.7346,2.7346,2.7378,2.7379,2.7379,2.7304,2.7302,2.7299,2.7296,2.7332,2.7336,2.734,0,0,0,0,0,0,0,0,0,0,0,0,0,2.7264,2.7221,2.7345,2.7313,2.731,2.7378,2.7379,2.7379,2.7305,2.7301,2.7298,2.7294,2.7331,2.7335,2.734,2.7442,0,0,2.7355,2.7357,0,0,0,0,0,0,0,0,2.7261,2.7268,2.7317,2.7315,2.7312,2.7333,2.7347,2.74,2.7306,2.7307,2.7297,2.7293,2.7336,2.734,2.7355,2.7444,2.7445,2.7355,2.7358,2.736,2.7362,0,0,0,0,0,0,0,2.7258,2.7267,2.7358,2.7318,2.7315,2.7296,2.7299,2.7357,2.7342,2.7307,2.7301,2.7306,2.7334,2.735,2.7355,2.7446,2.7355,2.7359,2.7362,2.7364,2.7617,2.7621,0,0,0,0,0,0,2.7259,2.7264,2.7357,2.7359,2.7277,2.7301,2.7304,2.733,2.7341,2.7339,2.7309,2.7302,2.7344,2.7349,2.7356,2.7474,2.736,2.7365,2.7368,2.7614,2.7618,2.7622,0,0,0,0,0,0,2.7256,2.7268,2.7356,2.731,2.732,2.7307,2.7337,2.7333,2.7348,2.7343,2.734,2.7328,2.7341,2.7349,2.742,2.7474,2.7367,2.7371,2.7609,2.7615,2.762,2.7712,0,0,0,0,0,0,2.7253,2.7267,2.7306,2.7312,2.7323,2.742,2.734,2.7336,2.7357,2.7348,2.736,2.7358,2.7339,2.7414,2.7425,2.7479,2.7375,2.7604,2.7612,2.7618,2.7704,2.772,2.7733,0,0,0,0,0,2.7249,2.7332,2.7309,2.732,2.7371,2.7424,2.743,2.7405,2.7361,2.74,2.7396,2.7358,2.7466,2.7422,2.7434,2.749,2.7601,2.761,2.7618,2.7697,2.7717,2.7733,0,0,0,0,0,0,2.7334,2.7332,2.7306,2.7394,2.7409,2.7411,2.7459,2.7427,2.7456,2.7447,2.7417,2.742,2.7496,2.75,2.745,2.7587,2.7526,2.7538,2.7582,2.76,2.7615,2.7612,2.7379,0,0,0,0,0,2.7363,2.7405,2.7401,2.7479,2.7488,2.7472,2.7494,2.7474,2.7489,2.7495,2.7496,2.7513,2.755,2.7576,2.761,2.7704,2.7704,2.7748,2.7763,2.7775,2.7785,2.7833,2.7852,2.7651,2.7651,2.765,0,0,2.7424,2.7427,2.7457,2.7496,2.7506,2.755,2.7478,2.7529,2.7561,2.7503,2.7569,2.7571,2.7587,2.7669,2.7706,2.7675,2.7841,2.7786,2.7796,2.78,2.7844,2.7863,2.7879,2.7657,2.7655,2.7655,0,0,2.7556,2.7564,2.7628,2.7638,2.7653,2.7641,2.7657,2.7663,2.7661,2.7727,2.7684,2.7722,2.7788,2.78,2.7815,2.7949,2.7914,2.7961,2.8039,2.8085,2.8101,2.8115,2.8161,2.8178,2.7972,2.7972,2.7972,0,2.7629,2.7693,2.7665,2.7717,2.7735,2.7683,2.7747,2.7759,2.7785,2.7798,2.7763,2.7843,2.785,2.7934,2.7966,2.7981,2.7996,2.796,2.8101,2.8115,2.8127,2.817,2.8188,2.7977,2.7977,2.7976,2.7976,0,2.7782,2.7827,2.7877,2.7901,2.7925,2.7983,2.7963,2.799,2.7967,2.7959,2.8026,2.8033,2.8066,2.8085,2.8064,2.8165,2.8145,2.8106,2.8044,2.8152,2.8192,2.8209,2.7985,2.7983,2.7982,2.798,0,0,2.797,2.7975,2.7994,2.8003,2.8015,2.8049,2.8104,2.8136,2.8159,2.8178,2.8222,2.8278,2.8241,2.8259,2.8238,2.8279,2.8382,2.8235,2.8235,2.8261,2.8491,2.8519,2.8539,2.836,2.8363,2.8365,2.8489,0,2.8099,2.8192,2.8167,2.826,2.83,2.8251,2.8298,2.831,2.8304,2.8337,2.833,2.8369,2.8319,2.8329,2.8367,2.8362,2.8428,2.8353,2.84,2.8402,2.8396,2.856,2.859,2.8707,2.8505,2.8507,2.8509,0,2.8262,2.8285,2.8382,2.8384,2.84,2.8443,2.8468,2.8501,2.8513,2.8505,2.8523,2.8494,2.8547,2.8485,2.8557,2.8507,2.8524,2.8524,2.8528,2.8531,2.8461,2.8565,2.8744,2.8761,2.8534,2.8532,2.853,0,2.8387,2.8443,2.8507,2.8516,2.8521,2.8552,2.8556,2.8564,2.8584,2.8606,2.8618,2.8647,2.8663,2.8686,2.8665,2.8622,2.874,2.8676,2.8734,2.8735,2.8761,2.8759,2.8943,2.8775,2.8775,2.8774,2.8774,0,2.8533,2.8593,2.8562,2.8602,2.8668,2.8638,2.8704,2.8702,2.8709,2.8747,2.8707,2.8743,2.8714,2.8747,2.8731,2.8792,2.88,2.8795,2.879,2.8798,2.8798,2.8808,2.8799,2.8779,2.8778,2.8777,2.8776,0,2.8683,2.8665,2.8731,2.8729,2.873,2.8779,2.8777,2.8813,2.8803,2.8851,2.8861,2.8845,2.8882,2.8864,2.8903,2.8892,2.897,2.8955,2.8966,2.8961,2.9019,2.9014,2.9215,2.9239,2.9057,2.9059,2.906,0,2.8777,2.8822,2.8824,2.8845,2.8851,2.8887,2.8906,2.8878,2.89,2.8915,2.8949,2.8982,2.9007,2.9069,2.9061,2.9091,2.9075,2.9143,2.9079,2.9085,2.9074,2.9071,2.9074,2.9156,2.9158,2.916,2.9161,0,2.8944,2.8932,2.8961,2.8986,2.9009,2.9028,2.9044,2.9064,2.9036,2.9062,2.9099,2.9118,2.9157,2.919,2.9215,2.9218,2.9185,2.9181,2.9196,2.9204,2.9208,2.9205,2.8999,2.9177,2.9175,2.9174,2.9173,2.9173,2.9068,2.9104,2.9111,2.9143,2.9151,2.9166,2.9199,2.9192,2.9222,2.925,2.9232,2.9275,2.9283,2.9313,2.932,2.9353,2.9325,2.9347,2.9352,2.9358,2.9365,2.9203,2.9358,2.9357,2.9357,2.9356,2.9356,0,2.9231,2.9232,2.9262,2.9284,2.9309,2.9275,2.9289,2.9313,2.935,2.9361,2.9386,2.9427,2.9458,2.9452,2.948,2.9507,2.9493,2.9516,2.9513,2.9514,2.9389,2.9372,2.9527,2.9527,2.9527,2.9527,2.9527,2.9527,2.9319,2.9378,2.9367,2.9429,2.943,2.947,2.9481,2.9494,2.9502,2.9549,2.9574,2.957,2.9573,2.9601,2.9627,2.9625,2.9636,2.9665,2.9657,2.954,2.9523,2.9507,2.9491,2.9668,2.9668,2.9778,2.9779,2.978]},{"header":{"parameterUnit":"m.s-1","parameterCategory":1,"la1":30.2991,"la2":30.254,"lo1":-89.0895,"lo2":-89.0444,"dy":0.0017,"dx":0.0017,"nx":28,"ny":28,"refTime":"2024-08-10T09:00:00:Z","depth":0,"parameterNumber":3,"parameterNumberName":"V-component_of_WINDS"},"data":[0,0,0,0,0,0,0,0,0,0,0,0,0,0,0,0,0,0,0,0,0,0,0,0,0,0,0,0,0,0,0,0,0,0,0,0,0,0,0,0,0,0,0,0,0,0,0,0,0,0,0,0,0,0,0,0,0,0,3.5476,3.5476,0,3.5462,3.5462,3.5462,3.5391,3.5389,3.5387,3.5386,3.5372,3.5373,3.5375,0,0,0,0,0,0,0,0,0,0,0,0,0,3.5442,3.5443,3.5476,3.5476,3.5476,3.5462,3.5462,3.5462,3.5391,3.5389,3.5387,3.5385,3.5372,3.5373,3.5375,0,0,0,0,0,0,0,0,0,0,0,0,0,3.5445,3.5443,3.5476,3.5439,3.5435,3.5462,3.5462,3.5462,3.5391,3.5389,3.5386,3.5384,3.5371,3.5373,3.5375,3.5437,0,0,3.538,3.5381,0,0,0,0,0,0,0,0,3.5445,3.5446,3.5444,3.5441,3.5438,3.5426,3.5445,3.5454,3.5392,3.5408,3.5386,3.5383,3.5392,3.5392,3.5395,3.5436,3.5436,3.5381,3.5382,3.5383,3.5383,0,0,0,0,0,0,0,3.5445,3.5447,3.5471,3.5445,3.544,3.5423,3.542,3.5446,3.5415,3.5406,3.5401,3.5401,3.539,3.5393,3.5394,3.5436,3.5381,3.5382,3.5383,3.5384,3.5526,3.5529,0,0,0,0,0,0,3.545,3.5447,3.5471,3.547,3.5435,3.5425,3.5423,3.5432,3.5414,3.5409,3.5403,3.5397,3.5392,3.5392,3.5393,3.5464,3.5383,3.5384,3.5385,3.5524,3.5527,3.553,0,0,0,0,0,0,3.5449,3.5453,3.5472,3.5457,3.5458,3.5429,3.544,3.5433,3.5437,3.5411,3.5405,3.5412,3.539,3.5391,3.5426,3.5462,3.5385,3.5387,3.5521,3.5525,3.5529,3.5606,0,0,0,0,0,0,3.5449,3.5453,3.5476,3.5458,3.5459,3.5505,3.5442,3.5435,3.544,3.5433,3.5419,3.5414,3.5388,3.5424,3.5428,3.5464,3.5388,3.5517,3.5523,3.5527,3.56,3.5612,3.5623,0,0,0,0,0,3.5448,3.5499,3.5478,3.5481,3.5488,3.5507,3.5508,3.5476,3.5443,3.5466,3.545,3.5414,3.5458,3.5428,3.5432,3.5469,3.5515,3.5521,3.5527,3.5595,3.561,3.5622,0,0,0,0,0,0,3.5522,3.5496,3.5472,3.5519,3.5516,3.5495,3.5523,3.5493,3.55,3.5493,3.5454,3.5451,3.5492,3.5484,3.5451,3.5528,3.548,3.5488,3.5531,3.5545,3.5556,3.5556,3.539,0,0,0,0,0,3.5544,3.5562,3.5538,3.5582,3.5582,3.5553,3.556,3.5536,3.5532,3.553,3.5516,3.5513,3.5526,3.5535,3.5546,3.5599,3.5595,3.5626,3.5638,3.5647,3.5653,3.568,3.5693,3.555,3.555,3.555,0,0,3.5589,3.5577,3.5591,3.5597,3.5591,3.561,3.5552,3.5575,3.5589,3.5533,3.5565,3.5556,3.555,3.5594,3.5613,3.5589,3.5692,3.5655,3.5662,3.5663,3.5687,3.5701,3.5713,3.5554,3.5553,3.5553,0,0,3.5681,3.5675,3.5709,3.5705,3.5698,3.5679,3.5687,3.5671,3.5662,3.5694,3.5652,3.5669,3.5692,3.5689,3.5691,3.5782,3.5749,3.5787,3.5845,3.5871,3.5883,3.5892,3.5924,3.5936,3.5793,3.5794,3.5794,0,3.5738,3.5765,3.5731,3.5757,3.576,3.5711,3.5746,3.5744,3.5741,3.5744,3.5717,3.5745,3.5737,3.578,3.5802,3.5806,3.5814,3.5787,3.5884,3.5893,3.5902,3.5931,3.5943,3.5798,3.5798,3.5797,3.5797,0,3.5835,3.5855,3.5884,3.5881,3.5888,3.5919,3.5889,3.59,3.5876,3.586,3.5893,3.5882,3.589,3.5898,3.5875,3.5938,3.5923,3.5891,3.5842,3.5921,3.5947,3.5959,3.5804,3.5803,3.5802,3.58,0,0,3.5972,3.5951,3.5962,3.596,3.5948,3.5963,3.5991,3.5997,3.6007,3.6007,3.6029,3.605,3.602,3.6022,3.5999,3.6022,3.6094,3.5987,3.5986,3.6006,3.6161,3.6183,3.6197,3.6073,3.6075,3.6076,3.616,0,3.6059,3.6105,3.6075,3.6126,3.6143,3.6097,3.6121,3.6117,3.6102,3.6115,3.6099,3.6114,3.6074,3.6075,3.6096,3.608,3.6124,3.6074,3.6092,3.6093,3.6093,3.6211,3.6236,3.6315,3.6171,3.6173,3.6174,0,3.6166,3.6169,3.6222,3.6206,3.6212,3.6234,3.6238,3.6251,3.6245,3.6233,3.6235,3.6206,3.6232,3.6186,3.6221,3.6188,3.6194,3.6187,3.619,3.6189,3.6137,3.6212,3.634,3.6352,3.619,3.6189,3.6188,0,3.6258,3.6277,3.631,3.631,3.6293,3.6309,3.6303,3.6295,3.6301,3.6304,3.6307,3.6315,3.6318,3.6324,3.6297,3.6266,3.6336,3.6287,3.6326,3.6327,3.6341,3.634,3.6471,3.6348,3.6348,3.6348,3.6348,0,3.6357,3.639,3.6351,3.6371,3.6407,3.6373,3.641,3.6399,3.6392,3.6409,3.6371,3.6388,3.6352,3.6366,3.6345,3.6377,3.638,3.637,3.6364,3.6373,3.6374,3.6374,3.6368,3.6351,3.635,3.635,3.6349,0,3.6465,3.6441,3.6474,3.6455,3.6451,3.6478,3.6462,3.648,3.6464,3.6486,3.649,3.6464,3.6478,3.6452,3.6463,3.6449,3.6494,3.648,3.6495,3.649,3.653,3.6526,3.6664,3.6679,3.6549,3.655,3.6551,0,3.6529,3.6553,3.6537,3.6546,3.6542,3.6556,3.6562,3.653,3.6537,3.6533,3.6551,3.6562,3.6569,3.6593,3.6576,3.6584,3.6569,3.6617,3.657,3.6577,3.6567,3.6565,3.6567,3.6626,3.6627,3.6629,3.663,0,3.6644,3.663,3.6639,3.6645,3.6652,3.6655,3.6655,3.6664,3.663,3.6641,3.6654,3.666,3.6671,3.6681,3.6685,3.6679,3.6649,3.6645,3.6654,3.6662,3.6669,3.6664,3.652,3.6641,3.664,3.6639,3.6639,3.6638,3.673,3.6749,3.6741,3.6752,3.6749,3.675,3.6765,3.6751,3.6761,3.6767,3.6748,3.6766,3.676,3.6762,3.6759,3.6773,3.6751,3.6765,3.6768,3.6771,3.6777,3.6669,3.6774,3.6773,3.6773,3.6773,3.6773,0,3.6841,3.6834,3.6845,3.6845,3.6855,3.6826,3.6824,3.6833,3.6849,3.6846,3.6853,3.6869,3.688,3.6863,3.6871,3.6885,3.6871,3.6888,3.6886,3.6884,3.6796,3.6787,3.6899,3.6899,3.6899,3.6899,3.6899,3.6899,3.69,3.693,3.6916,3.6945,3.6937,3.6953,3.6955,3.6955,3.6952,3.6971,3.698,3.6969,3.696,3.6967,3.6975,3.697,3.6974,3.6996,3.6986,3.6903,3.6891,3.6879,3.687,3.6997,3.6997,3.7072,3.7073,3.7073]}]]